Location: Observatory
(52.1446°N, 0.4624°W)
Time: 21:38:09
(UTC+01:00)

ISS - Visible Passes

Search period start: 18 July 2018 00:00
Search period end: 28 July 2018 00:00
Orbit: 402 x 408 km, 51.6° (Epoch: 19 July)

Date Brightness Start Highest point End Pass type
(mag) Time Alt. Az. Time Alt. Az. Time Alt. Az.
18 Jul -4.0 01:22:46 22° WSW 01:24:45 72° S 01:28:03 10° E visible
18 Jul -3.9 02:57:55 10° W 03:01:12 76° S 03:04:31 10° ESE visible
18 Jul -1.8 22:58:10 14° ESE 22:58:10 14° ESE 22:59:00 10° E visible
19 Jul -3.9 00:30:34 19° WSW 00:32:41 58° SSE 00:35:57 10° E visible
19 Jul -3.9 02:05:49 10° W 02:09:08 83° S 02:12:26 10° E visible
19 Jul -3.5 03:42:20 10° W 03:45:29 43° SSW 03:48:38 10° SE visible
19 Jul -1.9 22:03:28 10° SSE 22:04:48 12° SE 22:06:08 10° ESE visible
19 Jul -3.5 23:37:32 10° SW 23:40:39 43° SSE 23:43:49 10° E visible
20 Jul -4.0 01:13:43 10° W 01:17:01 83° S 01:20:19 10° E visible
20 Jul -3.8 02:50:12 10° W 02:53:27 58° SSW 02:56:42 10° ESE visible
20 Jul -3.1 22:45:44 10° SW 22:48:40 31° SSE 22:51:36 10° E visible
21 Jul -4.0 00:21:37 10° WSW 00:24:54 76° S 00:28:13 10° E visible
21 Jul -4.0 01:58:04 10° W 02:01:22 72° S 02:04:39 10° ESE visible
21 Jul -2.9 03:34:43 10° W 03:37:34 27° SSW 03:40:24 10° SSE visible
21 Jul -2.5 21:54:08 10° SSW 21:56:42 21° SE 21:59:17 10° E visible
21 Jul -3.9 23:29:33 10° WSW 23:32:48 63° SSE 23:36:04 10° E visible
22 Jul -4.0 01:05:57 10° W 01:09:15 81° S 01:12:33 10° E visible
22 Jul -3.4 02:42:28 10° W 02:45:34 38° SSW 02:48:39 10° SE visible
22 Jul -3.6 22:37:33 10° SW 22:40:43 48° SSE 22:43:55 10° E visible
23 Jul -4.0 00:13:49 10° W 00:17:07 84° S 00:20:25 10° E visible
23 Jul -3.7 01:50:18 10° W 01:53:17 51° SW 01:53:17 51° SW visible
23 Jul -3.2 21:45:39 10° SW 21:48:40 35° SSE 21:51:42 10° E visible
23 Jul -4.0 23:21:40 10° W 23:24:58 80° S 23:28:16 10° E visible
24 Jul -4.0 00:58:08 10° W 01:01:25 67° SSW 01:01:39 63° SSE visible
24 Jul -3.9 22:29:33 10° WSW 22:32:48 69° SSE 22:36:05 10° E visible
25 Jul -4.0 00:05:58 10° W 00:09:16 79° S 00:10:40 32° ESE visible
25 Jul -1.6 01:42:31 10° W 01:43:16 15° W 01:43:16 15° W visible
25 Jul -3.9 23:13:47 10° W 23:17:05 84° S 23:19:52 14° E visible
26 Jul -2.8 00:50:17 10° W 00:52:29 34° WSW 00:52:29 34° WSW visible
26 Jul -3.9 22:21:36 10° W 22:24:53 82° S 22:28:12 10° E visible
26 Jul -3.9 23:58:04 10° W 00:01:20 62° SSW 00:01:47 54° SSE visible
27 Jul -3.9 23:05:52 10° W 23:09:10 75° S 23:11:08 22° ESE visible
